Chicago Midway International Airport Chicago US
ICAO: KMDW
IATA: MDW
Category: Large
Scheduled Services: Yes

Elevation: 620 ft
TransAlt. 18000 ft.

Airport Communications:
APP/DEP:118.4
ASOS:132.75
ATIS:132.75
CLNC DEL:121.85
GND:121.65
TWR:118.7
UNICOM:122.95

KMDW Zoom In..

If you have problems with the map follow the link
https://www.worldairports.se/pages/airport.php?
ICAO=KMDW

Runways:

(A) RW 04L length 5507 ft width 150 ft
---- / hdg 44

(B) RW 04R length 6445 ft width 150 ft
ILS 111.50 / hdg 44

(C) RW 13C length 6522 ft width 150 ft
ILS 109.90 / hdg 135

(D) RW 13L length 5141 ft width 150 ft
---- / hdg 135

(E) RW 13R length 3859 ft width 60 ft
---- / hdg 135

(F) RW 22L length 6445 ft width 150 ft
---- / hdg 224

(G) RW 22R length 5507 ft width 150 ft
---- / hdg 224

(H) RW 31C length 6522 ft width 150 ft
ILS 109.90 / hdg 315

(I) RW 31L length 3859 ft width 60 ft
---- / hdg 315

(J) RW 31R length 5141 ft width 150 ft
---- / hdg 315

Location; KMDW
Day. 18 / Time. 21.53 Zulu
* Altimeter: 30.15
* Temperature: -01° c. -30.2°f.
* Wind from: 040° Speed 10 kn.
Dewpoint: -04° c.
Visibility: 9 Statute Miles.
Clouds: Overcast 1600 ft.

KMDW 182153Z 04010KT 9SM OVC016 M01/M04 A3015 RMK AO2 SLP222 T10111044


Wind From 040°
Speed 10 kn.

 
 
jpsmedia.com for Web Design worldairports.se 2019   terms of use